Time,TemperatureF,DewpointF,PressureIn,WindDirection,WindDirectionDegrees,WindSpeedMPH,WindSpeedGustMPH,Humidity,HourlyPrecipIn,Conditions,Clouds,dailyrainin,SoftwareType,DateUTC
2013-10-02 00:00:00,74.1,39.8,29.69,SW,221,1.0,1.0,29,0.00,,,0.00,Wunderground v.1.15,2013-10-02 07:00:00,
2013-10-02 00:05:00,73.8,39.5,29.69,SE,131,0.0,1.0,29,0.00,,,0.00,Wunderground v.1.15,2013-10-02 07:05:00,
2013-10-02 00:10:00,73.6,40.2,29.69,SSE,163,1.0,1.0,30,0.00,,,0.00,Wunderground v.1.15,2013-10-02 07:10:00,
2013-10-02 00:15:00,73.4,40.1,29.69,SSW,195,1.0,1.0,30,0.00,,,0.00,Wunderground v.1.15,2013-10-02 07:15:00,
2013-10-02 00:25:00,72.7,39.5,29.69,North,349,1.0,2.0,30,0.00,,,0.00,Wunderground v.1.15,2013-10-02 07:25:00,
2013-10-02 00:30:00,72.8,39.5,29.68,NNW,339,2.0,3.0,30,0.00,,,0.00,Wunderground v.1.15,2013-10-02 07:30:00,
2013-10-02 00:40:00,72.4,39.2,29.69,NE,44,3.0,3.0,30,0.00,,,0.00,Wunderground v.1.15,2013-10-02 07:40:00,
2013-10-02 00:45:00,72.2,39.0,29.69,ESE,116,1.0,3.0,30,0.00,,,0.00,Wunderground v.1.15,2013-10-02 07:45:00,
2013-10-02 00:50:00,71.5,38.4,29.69,East,99,1.0,2.0,30,0.00,,,0.00,Wunderground v.1.15,2013-10-02 07:50:00,
2013-10-02 01:00:00,70.5,38.4,29.70,NNW,347,1.0,1.0,31,0.00,,,0.00,Wunderground v.1.15,2013-10-02 08:00:00,
2013-10-02 01:05:00,70.4,38.3,29.70,NNW,330,1.0,1.0,31,0.00,,,0.00,Wunderground v.1.15,2013-10-02 08:05:00,
2013-10-02 01:10:00,70.5,38.4,29.70,NNW,332,1.0,1.0,31,0.00,,,0.00,Wunderground v.1.15,2013-10-02 08:10:00,
2013-10-02 01:15:00,70.5,38.4,29.70,North,352,0.0,1.0,31,0.00,,,0.00,Wunderground v.1.15,2013-10-02 08:15:00,
2013-10-02 01:25:00,70.2,38.9,29.70,NW,315,0.0,2.0,32,0.00,,,0.00,Wunderground v.1.15,2013-10-02 08:25:00,
2013-10-02 01:35:00,69.8,38.6,29.70,NNW,329,3.0,5.0,32,0.00,,,0.00,Wunderground v.1.15,2013-10-02 08:35:00,
2013-10-02 01:40:00,69.7,39.3,29.70,West,280,2.0,3.0,33,0.00,,,0.00,Wunderground v.1.15,2013-10-02 08:40:00,
2013-10-02 01:45:00,70.1,38.9,29.70,WNW,283,1.0,3.0,32,0.00,,,0.00,Wunderground v.1.15,2013-10-02 08:45:00,
2013-10-02 01:50:00,70.2,38.9,29.70,SW,225,1.0,1.0,32,0.00,,,0.00,Wunderground v.1.15,2013-10-02 08:50:00,
2013-10-02 01:55:00,70.1,38.9,29.70,SW,224,1.0,1.0,32,0.00,,,0.00,Wunderground v.1.15,2013-10-02 08:55:00,
2013-10-02 02:00:00,70.0,39.6,29.70,West,276,1.0,1.0,33,0.00,,,0.00,Wunderground v.1.15,2013-10-02 09:00:00,
2013-10-02 02:10:00,70.9,39.6,29.70,WNW,290,2.0,3.0,32,0.00,,,0.00,Wunderground v.1.15,2013-10-02 09:10:00,
2013-10-02 02:15:00,70.5,40.0,29.70,West,269,3.0,3.0,33,0.00,,,0.00,Wunderground v.1.15,2013-10-02 09:15:00,
2013-10-02 02:25:00,70.7,40.2,29.70,WNW,282,3.0,3.0,33,0.00,,,0.00,Wunderground v.1.15,2013-10-02 09:25:00,
2013-10-02 02:30:00,70.7,40.9,29.70,West,280,2.0,2.0,34,0.00,,,0.00,Wunderground v.1.15,2013-10-02 09:30:00,
2013-10-02 02:35:00,70.3,40.6,29.70,WNW,296,2.0,3.0,34,0.00,,,0.00,Wunderground v.1.15,2013-10-02 09:35:00,
2013-10-02 02:45:00,70.0,41.1,29.70,WNW,296,3.0,3.0,35,0.00,,,0.00,Wunderground v.1.15,2013-10-02 09:45:00,
2013-10-02 02:50:00,69.7,40.8,29.70,WNW,297,3.0,3.0,35,0.00,,,0.00,Wunderground v.1.15,2013-10-02 09:50:00,
2013-10-02 02:55:00,69.5,41.4,29.70,NW,304,3.0,3.0,36,0.00,,,0.00,Wunderground v.1.15,2013-10-02 09:55:00,
2013-10-02 03:00:00,69.6,41.5,29.70,WNW,296,3.0,4.0,36,0.00,,,0.00,Wunderground v.1.15,2013-10-02 10:00:00,
2013-10-02 03:05:00,69.6,41.5,29.70,WNW,297,4.0,5.0,36,0.00,,,0.00,Wunderground v.1.15,2013-10-02 10:05:00,
2013-10-02 03:15:00,68.5,41.9,29.69,WNW,301,6.0,7.0,38,0.00,,,0.00,Wunderground v.1.15,2013-10-02 10:15:00,
2013-10-02 03:20:00,68.4,42.5,29.69,WNW,301,6.0,6.0,39,0.00,,,0.00,Wunderground v.1.15,2013-10-02 10:20:00,
2013-10-02 03:30:00,68.3,42.4,29.69,NW,314,5.0,5.0,39,0.00,,,0.00,Wunderground v.1.15,2013-10-02 10:30:00,
2013-10-02 03:35:00,68.2,42.9,29.69,NW,306,5.0,6.0,40,0.00,,,0.00,Wunderground v.1.15,2013-10-02 10:35:00,
2013-10-02 03:40:00,68.3,42.4,29.69,NW,316,6.0,6.0,39,0.00,,,0.00,Wunderground v.1.15,2013-10-02 10:40:00,
2013-10-02 03:45:00,68.7,42.7,29.69,NNW,327,6.0,6.0,39,0.00,,,0.00,Wunderground v.1.15,2013-10-02 10:45:00,
2013-10-02 03:50:00,68.9,42.9,29.69,NW,326,6.0,6.0,39,0.00,,,0.00,Wunderground v.1.15,2013-10-02 10:50:00,
2013-10-02 03:55:00,68.9,42.9,29.69,NNW,328,6.0,6.0,39,0.00,,,0.00,Wunderground v.1.15,2013-10-02 10:55:00,
2013-10-02 04:00:00,68.6,42.6,29.69,North,353,5.0,5.0,39,0.00,,,0.00,Wunderground v.1.15,2013-10-02 11:00:00,
2013-10-02 04:05:00,68.1,42.9,29.70,SE,131,3.0,5.0,40,0.00,,,0.00,Wunderground v.1.15,2013-10-02 11:05:00,
2013-10-02 04:10:00,67.9,42.7,29.70,NNW,340,1.0,2.0,40,0.00,,,0.00,Wunderground v.1.15,2013-10-02 11:10:00,
2013-10-02 04:15:00,67.7,42.5,29.70,NNW,334,1.0,2.0,40,0.00,,,0.00,Wunderground v.1.15,2013-10-02 11:15:00,
2013-10-02 04:20:00,67.3,42.8,29.70,NNW,334,1.0,1.0,41,0.00,,,0.00,Wunderground v.1.15,2013-10-02 11:20:00,
2013-10-02 04:30:00,67.8,42.6,29.70,NW,318,0.0,0.0,40,0.00,,,0.00,Wunderground v.1.15,2013-10-02 11:30:00,
2013-10-02 04:35:00,68.3,43.0,29.70,NW,316,0.0,0.0,40,0.00,,,0.00,Wunderground v.1.15,2013-10-02 11:35:00,
2013-10-02 04:40:00,68.5,42.6,29.70,NNW,337,0.0,0.0,39,0.00,,,0.00,Wunderground v.1.15,2013-10-02 11:40:00,
2013-10-02 04:45:00,67.9,42.7,29.70,NNE,12,1.0,2.0,40,0.00,,,0.00,Wunderground v.1.15,2013-10-02 11:45:00,
2013-10-02 04:50:00,68.0,43.4,29.70,NW,323,2.0,4.0,41,0.00,,,0.00,Wunderground v.1.15,2013-10-02 11:50:00,
2013-10-02 04:55:00,68.3,43.0,29.70,NNW,337,4.0,5.0,40,0.00,,,0.00,Wunderground v.1.15,2013-10-02 11:55:00,
2013-10-02 05:00:00,68.0,43.4,29.70,NW,326,5.0,5.0,41,0.00,,,0.00,Wunderground v.1.15,2013-10-02 12:00:00,
2013-10-02 05:05:00,68.0,42.8,29.70,NW,321,5.0,5.0,40,0.00,,,0.00,Wunderground v.1.15,2013-10-02 12:05:00,
2013-10-02 05:10:00,67.8,43.2,29.70,North,352,4.0,4.0,41,0.00,,,0.00,Wunderground v.1.15,2013-10-02 12:10:00,
2013-10-02 05:20:00,67.5,43.0,29.71,NW,316,3.0,3.0,41,0.00,,,0.00,Wunderground v.1.15,2013-10-02 12:20:00,
2013-10-02 05:25:00,67.7,43.1,29.70,NNW,330,3.0,3.0,41,0.00,,,0.00,Wunderground v.1.15,2013-10-02 12:25:00,
2013-10-02 05:35:00,68.5,43.2,29.71,NW,320,1.0,1.0,40,0.00,,,0.00,Wunderground v.1.15,2013-10-02 12:35:00,
2013-10-02 05:40:00,68.6,43.3,29.71,NW,318,1.0,2.0,40,0.00,,,0.00,Wunderground v.1.15,2013-10-02 12:40:00,
2013-10-02 05:45:00,69.1,43.1,29.71,NNW,340,2.0,3.0,39,0.00,,,0.00,Wunderground v.1.15,2013-10-02 12:45:00,
2013-10-02 05:50:00,69.7,42.9,29.71,NW,323,2.0,2.0,38,0.00,,,0.00,Wunderground v.1.15,2013-10-02 12:50:00,
2013-10-02 06:00:00,69.7,42.9,29.71,NW,323,2.0,2.0,38,0.00,,,0.00,Wunderground v.1.15,2013-10-02 13:00:00,
2013-10-02 06:05:00,69.5,42.8,29.71,NW,316,2.0,2.0,38,0.00,,,0.00,Wunderground v.1.15,2013-10-02 13:05:00,
2013-10-02 06:10:00,69.3,42.6,29.71,NW,323,2.0,2.0,38,0.00,,,0.00,Wunderground v.1.15,2013-10-02 13:10:00,
2013-10-02 06:15:00,68.8,42.1,29.71,NE,38,2.0,2.0,38,0.00,,,0.00,Wunderground v.1.15,2013-10-02 13:15:00,
2013-10-02 06:20:00,67.4,42.2,29.71,NE,53,2.0,2.0,40,0.00,,,0.00,Wunderground v.1.15,2013-10-02 13:20:00,
2013-10-02 06:25:00,66.7,42.2,29.71,West,262,1.0,2.0,41,0.00,,,0.00,Wunderground v.1.15,2013-10-02 13:25:00,
2013-10-02 06:35:00,67.8,42.6,29.71,West,271,1.0,1.0,40,0.00,,,0.00,Wunderground v.1.15,2013-10-02 13:35:00,
2013-10-02 06:40:00,67.9,42.7,29.72,West,271,1.0,1.0,40,0.00,,,0.00,Wunderground v.1.15,2013-10-02 13:40:00,
2013-10-02 06:45:00,68.1,42.9,29.72,West,271,0.0,1.0,40,0.00,,,0.00,Wunderground v.1.15,2013-10-02 13:45:00,
2013-10-02 06:50:00,69.0,43.0,29.72,West,271,0.0,0.0,39,0.00,,,0.00,Wunderground v.1.15,2013-10-02 13:50:00,
2013-10-02 06:55:00,69.8,43.7,29.72,WNW,296,0.0,0.0,39,0.00,,,0.00,Wunderground v.1.15,2013-10-02 13:55:00,
2013-10-02 07:00:00,70.5,43.7,29.72,WNW,298,0.0,0.0,38,0.00,,,0.00,Wunderground v.1.15,2013-10-02 14:00:00,
2013-10-02 07:05:00,71.2,44.3,29.72,WNW,297,0.0,0.0,38,0.00,,,0.00,Wunderground v.1.15,2013-10-02 14:05:00,
2013-10-02 07:15:00,72.7,44.2,29.72,WNW,297,0.0,0.0,36,0.00,,,0.00,Wunderground v.1.15,2013-10-02 14:15:00,
2013-10-02 07:20:00,74.2,44.0,29.72,SE,146,0.0,0.0,34,0.00,,,0.00,Wunderground v.1.15,2013-10-02 14:20:00,
2013-10-02 07:30:00,73.0,43.7,29.72,SSW,211,2.0,3.0,35,0.00,,,0.00,Wunderground v.1.15,2013-10-02 14:30:00,
2013-10-02 07:35:00,72.5,43.3,29.73,SSW,203,3.0,3.0,35,0.00,,,0.00,Wunderground v.1.15,2013-10-02 14:35:00,
2013-10-02 07:40:00,72.6,43.4,29.73,SW,214,2.0,2.0,35,0.00,,,0.00,Wunderground v.1.15,2013-10-02 14:40:00,
2013-10-02 07:45:00,73.0,43.7,29.73,SSW,204,1.0,2.0,35,0.00,,,0.00,Wunderground v.1.15,2013-10-02 14:45:00,
2013-10-02 07:50:00,73.5,43.4,29.73,SSE,167,2.0,2.0,34,0.00,,,0.00,Wunderground v.1.15,2013-10-02 14:50:00,
2013-10-02 07:55:00,74.4,43.4,29.73,South,181,2.0,2.0,33,0.00,,,0.00,Wunderground v.1.15,2013-10-02 14:55:00,
2013-10-02 08:00:00,75.3,43.4,29.73,SE,127,1.0,1.0,32,0.00,,,0.00,Wunderground v.1.15,2013-10-02 15:00:00,
2013-10-02 08:05:00,76.3,43.4,29.73,East,79,0.0,1.0,31,0.00,,,0.00,Wunderground v.1.15,2013-10-02 15:05:00,
2013-10-02 08:10:00,76.5,43.6,29.73,ESE,110,1.0,1.0,31,0.00,,,0.00,Wunderground v.1.15,2013-10-02 15:10:00,
2013-10-02 08:15:00,76.4,44.4,29.73,SSE,156,1.0,1.0,32,0.00,,,0.00,Wunderground v.1.15,2013-10-02 15:15:00,
2013-10-02 08:25:00,77.3,45.1,29.74,ESE,119,1.0,3.0,32,0.00,,,0.00,Wunderground v.1.15,2013-10-02 15:25:00,
2013-10-02 08:30:00,77.4,44.4,29.74,East,98,2.0,3.0,31,0.00,,,0.00,Wunderground v.1.15,2013-10-02 15:30:00,
2013-10-02 08:35:00,77.2,44.2,29.74,SSW,197,2.0,4.0,31,0.00,,,0.00,Wunderground v.1.15,2013-10-02 15:35:00,
2013-10-02 08:40:00,77.6,44.6,29.74,SE,134,3.0,5.0,31,0.00,,,0.00,Wunderground v.1.15,2013-10-02 15:40:00,
2013-10-02 08:45:00,77.4,44.4,29.74,SE,136,3.0,5.0,31,0.00,,,0.00,Wunderground v.1.15,2013-10-02 15:45:00,
2013-10-02 08:55:00,77.4,45.2,29.74,East,86,2.0,5.0,32,0.00,,,0.00,Wunderground v.1.15,2013-10-02 15:55:00,
2013-10-02 09:00:00,77.7,44.6,29.74,SSE,150,2.0,4.0,31,0.00,,,0.00,Wunderground v.1.15,2013-10-02 16:00:00,
2013-10-02 09:10:00,77.7,44.6,29.74,ESE,109,4.0,4.0,31,0.00,,,0.00,Wunderground v.1.15,2013-10-02 16:10:00,
2013-10-02 09:15:00,78.2,45.1,29.74,SSW,192,3.0,4.0,31,0.00,,,0.00,Wunderground v.1.15,2013-10-02 16:15:00,
2013-10-02 09:20:00,78.7,45.5,29.74,SE,133,4.0,5.0,31,0.00,,,0.00,Wunderground v.1.15,2013-10-02 16:20:00,
2013-10-02 09:25:00,78.6,45.4,29.74,SE,138,3.0,5.0,31,0.00,,,0.00,Wunderground v.1.15,2013-10-02 16:25:00,
2013-10-02 09:35:00,79.9,45.7,29.73,ESE,119,4.0,6.0,30,0.00,,,0.00,Wunderground v.1.15,2013-10-02 16:35:00,
2013-10-02 09:45:00,80.0,45.8,29.73,South,190,3.0,6.0,30,0.00,,,0.00,Wunderground v.1.15,2013-10-02 16:45:00,
2013-10-02 09:50:00,79.5,46.2,29.73,South,186,5.0,5.0,31,0.00,,,0.00,Wunderground v.1.15,2013-10-02 16:50:00,
2013-10-02 09:55:00,79.8,46.5,29.73,SE,132,5.0,5.0,31,0.00,,,0.00,Wunderground v.1.15,2013-10-02 16:55:00,
2013-10-02 10:00:00,80.1,46.7,29.73,South,184,3.0,3.0,31,0.00,,,0.00,Wunderground v.1.15,2013-10-02 17:00:00,
2013-10-02 10:05:00,80.4,46.1,29.73,SSW,203,3.0,5.0,30,0.00,,,0.00,Wunderground v.1.15,2013-10-02 17:05:00,
2013-10-02 10:10:00,80.0,44.9,29.73,South,176,4.0,9.0,29,0.00,,,0.00,Wunderground v.1.15,2013-10-02 17:10:00,
2013-10-02 10:15:00,80.5,45.3,29.73,SSE,155,5.0,9.0,29,0.00,,,0.00,Wunderground v.1.15,2013-10-02 17:15:00,
2013-10-02 10:25:00,80.8,44.6,29.73,West,263,3.0,4.0,28,0.00,,,0.00,Wunderground v.1.15,2013-10-02 17:25:00,
2013-10-02 10:35:00,81.0,44.8,29.72,WSW,252,5.0,8.0,28,0.00,,,0.00,Wunderground v.1.15,2013-10-02 17:35:00,
2013-10-02 10:40:00,81.6,44.4,29.72,SE,146,4.0,6.0,27,0.00,,,0.00,Wunderground v.1.15,2013-10-02 17:40:00,
2013-10-02 10:45:00,81.7,44.5,29.72,SSE,167,5.0,6.0,27,0.00,,,0.00,Wunderground v.1.15,2013-10-02 17:45:00,
2013-10-02 10:50:00,81.7,44.5,29.72,SSE,155,5.0,6.0,27,0.00,,,0.00,Wunderground v.1.15,2013-10-02 17:50:00,
2013-10-02 10:55:00,81.8,44.5,29.72,West,263,4.0,6.0,27,0.00,,,0.00,Wunderground v.1.15,2013-10-02 17:55:00,
2013-10-02 11:00:00,82.7,45.3,29.71,SSE,166,4.0,6.0,27,0.00,,,0.00,Wunderground v.1.15,2013-10-02 18:00:00,
2013-10-02 11:05:00,82.6,44.2,29.71,SSE,156,5.0,6.0,26,0.00,,,0.00,Wunderground v.1.15,2013-10-02 18:05:00,
2013-10-02 11:10:00,82.5,45.1,29.71,ESE,122,6.0,8.0,27,0.00,,,0.00,Wunderground v.1.15,2013-10-02 18:10:00,
2013-10-02 11:15:00,81.8,45.5,29.71,SE,146,6.0,8.0,28,0.00,,,0.00,Wunderground v.1.15,2013-10-02 18:15:00,
2013-10-02 11:20:00,82.0,45.7,29.70,SSE,155,6.0,11.0,28,0.00,,,0.00,Wunderground v.1.15,2013-10-02 18:20:00,
2013-10-02 11:30:00,82.1,45.8,29.70,WSW,257,4.0,4.0,28,0.00,,,0.00,Wunderground v.1.15,2013-10-02 18:30:00,
2013-10-02 11:35:00,82.9,46.4,29.70,SSW,195,3.0,4.0,28,0.00,,,0.00,Wunderground v.1.15,2013-10-02 18:35:00,
2013-10-02 11:45:00,82.8,45.4,29.70,WSW,239,4.0,7.0,27,0.00,,,0.00,Wunderground v.1.15,2013-10-02 18:45:00,
2013-10-02 11:50:00,82.1,44.8,29.69,NW,323,5.0,5.0,27,0.00,,,0.00,Wunderground v.1.15,2013-10-02 18:50:00,
2013-10-02 11:55:00,82.6,45.2,29.69,SSE,156,5.0,9.0,27,0.00,,,0.00,Wunderground v.1.15,2013-10-02 18:55:00,
2013-10-02 12:00:00,83.2,44.7,29.69,South,174,6.0,6.0,26,0.00,,,0.00,Wunderground v.1.15,2013-10-02 19:00:00,
2013-10-02 12:05:00,83.3,44.8,29.69,North,11,5.0,6.0,26,0.00,,,0.00,Wunderground v.1.15,2013-10-02 19:05:00,
2013-10-02 12:10:00,84.1,43.4,29.68,South,190,5.0,11.0,24,0.00,,,0.00,Wunderground v.1.15,2013-10-02 19:10:00,
2013-10-02 12:15:00,85.0,43.0,29.68,South,172,7.0,11.0,23,0.00,,,0.00,Wunderground v.1.15,2013-10-02 19:15:00,
2013-10-02 12:20:00,84.1,43.4,29.68,SSE,162,10.0,10.0,24,0.00,,,0.00,Wunderground v.1.15,2013-10-02 19:20:00,
2013-10-02 12:30:00,83.7,44.1,29.68,ESE,105,7.0,13.0,25,0.00,,,0.00,Wunderground v.1.15,2013-10-02 19:30:00,
2013-10-02 12:35:00,83.9,44.3,29.67,SSW,208,8.0,13.0,25,0.00,,,0.00,Wunderground v.1.15,2013-10-02 19:35:00,
2013-10-02 12:40:00,83.6,44.1,29.67,SE,141,8.0,9.0,25,0.00,,,0.00,Wunderground v.1.15,2013-10-02 19:40:00,
2013-10-02 12:50:00,83.9,44.3,29.66,West,261,7.0,7.0,25,0.00,,,0.00,Wunderground v.1.15,2013-10-02 19:50:00,
2013-10-02 12:55:00,84.5,44.8,29.66,South,183,7.0,7.0,25,0.00,,,0.00,Wunderground v.1.15,2013-10-02 19:55:00,
2013-10-02 13:00:00,84.2,44.6,29.66,SSE,151,7.0,7.0,25,0.00,,,0.00,Wunderground v.1.15,2013-10-02 20:00:00,
2013-10-02 13:05:00,84.3,44.6,29.65,SW,214,7.0,7.0,25,0.00,,,0.00,Wunderground v.1.15,2013-10-02 20:05:00,
2013-10-02 13:10:00,84.5,44.8,29.65,SSW,199,9.0,9.0,25,0.00,,,0.00,Wunderground v.1.15,2013-10-02 20:10:00,
2013-10-02 13:15:00,84.4,44.7,29.65,SW,220,9.0,9.0,25,0.00,,,0.00,Wunderground v.1.15,2013-10-02 20:15:00,
2013-10-02 13:25:00,83.6,44.1,29.64,WSW,246,7.0,7.0,25,0.00,,,0.00,Wunderground v.1.15,2013-10-02 20:25:00,
2013-10-02 13:30:00,83.7,44.1,29.64,WSW,245,7.0,7.0,25,0.00,,,0.00,Wunderground v.1.15,2013-10-02 20:30:00,
2013-10-02 13:40:00,83.4,43.9,29.63,West,262,6.0,10.0,25,0.00,,,0.00,Wunderground v.1.15,2013-10-02 20:40:00,
2013-10-02 13:45:00,82.9,44.5,29.63,WSW,248,7.0,10.0,26,0.00,,,0.00,Wunderground v.1.15,2013-10-02 20:45:00,
2013-10-02 13:50:00,84.0,44.4,29.63,SSW,207,7.0,7.0,25,0.00,,,0.00,Wunderground v.1.15,2013-10-02 20:50:00,
2013-10-02 13:55:00,85.2,45.4,29.63,SSE,155,7.0,7.0,25,0.00,,,0.00,Wunderground v.1.15,2013-10-02 20:55:00,
2013-10-02 14:00:00,85.5,44.6,29.63,SSW,200,7.0,11.0,24,0.00,,,0.00,Wunderground v.1.15,2013-10-02 21:00:00,
2013-10-02 14:05:00,85.1,45.3,29.63,SSE,155,8.0,11.0,25,0.00,,,0.00,Wunderground v.1.15,2013-10-02 21:05:00,
2013-10-02 14:10:00,84.9,45.1,29.63,SW,236,9.0,11.0,25,0.00,,,0.00,Wunderground v.1.15,2013-10-02 21:10:00,
2013-10-02 14:15:00,84.9,45.1,29.63,SW,232,9.0,11.0,25,0.00,,,0.00,Wunderground v.1.15,2013-10-02 21:15:00,
2013-10-02 14:20:00,85.0,45.2,29.63,SSW,204,7.0,7.0,25,0.00,,,0.00,Wunderground v.1.15,2013-10-02 21:20:00,
2013-10-02 14:25:00,85.2,44.3,29.63,SSE,153,6.0,8.0,24,0.00,,,0.00,Wunderground v.1.15,2013-10-02 21:25:00,
2013-10-02 14:30:00,85.4,44.5,29.62,South,176,4.0,5.0,24,0.00,,,0.00,Wunderground v.1.15,2013-10-02 21:30:00,
2013-10-02 14:35:00,85.5,43.5,29.62,South,180,6.0,9.0,23,0.00,,,0.00,Wunderground v.1.15,2013-10-02 21:35:00,
2013-10-02 14:45:00,85.4,44.5,29.62,SSW,203,6.0,7.0,24,0.00,,,0.00,Wunderground v.1.15,2013-10-02 21:45:00,
2013-10-02 14:50:00,85.2,44.3,29.62,West,270,5.0,5.0,24,0.00,,,0.00,Wunderground v.1.15,2013-10-02 21:50:00,
2013-10-02 14:55:00,85.0,44.2,29.61,SW,222,5.0,5.0,24,0.00,,,0.00,Wunderground v.1.15,2013-10-02 21:55:00,
2013-10-02 15:05:00,85.3,44.4,29.61,SW,224,5.0,7.0,24,0.00,,,0.00,Wunderground v.1.15,2013-10-02 22:05:00,
2013-10-02 15:10:00,86.0,43.9,29.61,SW,214,5.0,11.0,23,0.00,,,0.00,Wunderground v.1.15,2013-10-02 22:10:00,
2013-10-02 15:15:00,86.1,44.0,29.61,SSE,163,5.0,11.0,23,0.00,,,0.00,Wunderground v.1.15,2013-10-02 22:15:00,
2013-10-02 15:20:00,85.9,42.6,29.61,WSW,240,7.0,7.0,22,0.00,,,0.00,Wunderground v.1.15,2013-10-02 22:20:00,
2013-10-02 15:25:00,85.2,43.2,29.61,WSW,248,8.0,9.0,23,0.00,,,0.00,Wunderground v.1.15,2013-10-02 22:25:00,
2013-10-02 15:30:00,84.8,42.9,29.61,West,262,7.0,7.0,23,0.00,,,0.00,Wunderground v.1.15,2013-10-02 22:30:00,
2013-10-02 15:40:00,85.0,43.0,29.61,WSW,253,7.0,7.0,23,0.00,,,0.00,Wunderground v.1.15,2013-10-02 22:40:00,
2013-10-02 15:45:00,84.9,43.0,29.61,WSW,244,7.0,12.0,23,0.00,,,0.00,Wunderground v.1.15,2013-10-02 22:45:00,
2013-10-02 15:50:00,84.8,42.9,29.60,SSE,153,5.0,6.0,23,0.00,,,0.00,Wunderground v.1.15,2013-10-02 22:50:00,
2013-10-02 15:55:00,85.7,43.6,29.60,SSW,204,6.0,7.0,23,0.00,,,0.00,Wunderground v.1.15,2013-10-02 22:55:00,
2013-10-02 16:00:00,85.4,42.2,29.60,WNW,297,7.0,7.0,22,0.00,,,0.00,Wunderground v.1.15,2013-10-02 23:00:00,
2013-10-02 16:10:00,86.0,42.7,29.60,SSE,162,3.0,3.0,22,0.00,,,0.00,Wunderground v.1.15,2013-10-02 23:10:00,
2013-10-02 16:15:00,85.7,42.5,29.60,West,278,3.0,3.0,22,0.00,,,0.00,Wunderground v.1.15,2013-10-02 23:15:00,
2013-10-02 16:20:00,85.4,42.2,29.60,NNW,341,4.0,4.0,22,0.00,,,0.00,Wunderground v.1.15,2013-10-02 23:20:00,
2013-10-02 16:25:00,85.4,42.2,29.60,SW,228,2.0,4.0,22,0.00,,,0.00,Wunderground v.1.15,2013-10-02 23:25:00,
2013-10-02 16:35:00,85.4,41.0,29.59,West,271,5.0,5.0,21,0.00,,,0.00,Wunderground v.1.15,2013-10-02 23:35:00,
2013-10-02 16:40:00,85.7,40.0,29.59,SW,233,5.0,7.0,20,0.00,,,0.00,Wunderground v.1.15,2013-10-02 23:40:00,
2013-10-02 16:45:00,85.5,39.8,29.59,West,261,5.0,7.0,20,0.00,,,0.00,Wunderground v.1.15,2013-10-02 23:45:00,
2013-10-02 16:50:00,85.5,39.8,29.59,SSW,201,6.0,7.0,20,0.00,,,0.00,Wunderground v.1.15,2013-10-02 23:50:00,
2013-10-02 16:55:00,85.5,38.5,29.60,SSW,192,6.0,7.0,19,0.00,,,0.00,Wunderground v.1.15,2013-10-02 23:55:00,
2013-10-02 17:00:00,85.3,38.4,29.60,SW,224,6.0,6.0,19,0.00,,,0.00,Wunderground v.1.15,2013-10-03 00:00:00,
2013-10-02 17:05:00,85.7,38.7,29.60,SW,224,4.0,6.0,19,0.00,,,0.00,Wunderground v.1.15,2013-10-03 00:05:00,
2013-10-02 17:10:00,85.5,38.5,29.59,SSW,210,4.0,4.0,19,0.00,,,0.00,Wunderground v.1.15,2013-10-03 00:10:00,
2013-10-02 17:15:00,85.2,38.3,29.60,WSW,252,5.0,5.0,19,0.00,,,0.00,Wunderground v.1.15,2013-10-03 00:15:00,
2013-10-02 17:20:00,85.1,39.5,29.59,SW,226,4.0,6.0,20,0.00,,,0.00,Wunderground v.1.15,2013-10-03 00:20:00,
2013-10-02 17:25:00,84.3,38.9,29.59,West,262,5.0,6.0,20,0.00,,,0.00,Wunderground v.1.15,2013-10-03 00:25:00,
2013-10-02 17:30:00,83.7,38.4,29.60,West,276,6.0,6.0,20,0.00,,,0.00,Wunderground v.1.15,2013-10-03 00:30:00,
2013-10-02 17:35:00,83.3,39.3,29.60,SW,225,6.0,7.0,21,0.00,,,0.00,Wunderground v.1.15,2013-10-03 00:35:00,
2013-10-02 17:45:00,82.8,38.9,29.59,WSW,248,7.0,10.0,21,0.00,,,0.00,Wunderground v.1.15,2013-10-03 00:45:00,
2013-10-02 17:50:00,82.6,38.7,29.59,SSW,207,5.0,5.0,21,0.00,,,0.00,Wunderground v.1.15,2013-10-03 00:50:00,
2013-10-02 17:55:00,82.4,38.5,29.60,SW,228,5.0,6.0,21,0.00,,,0.00,Wunderground v.1.15,2013-10-03 00:55:00,
2013-10-02 18:00:00,82.3,38.4,29.60,WSW,251,5.0,5.0,21,0.00,,,0.00,Wunderground v.1.15,2013-10-03 01:00:00,
2013-10-02 18:05:00,82.2,38.4,29.60,West,278,5.0,5.0,21,0.00,,,0.00,Wunderground v.1.15,2013-10-03 01:05:00,
2013-10-02 18:15:00,81.9,38.1,29.60,WSW,251,5.0,5.0,21,0.00,,,0.00,Wunderground v.1.15,2013-10-03 01:15:00,
2013-10-02 18:20:00,81.8,38.0,29.60,West,276,4.0,4.0,21,0.00,,,0.00,Wunderground v.1.15,2013-10-03 01:20:00,
2013-10-02 18:30:00,81.7,38.0,29.60,WSW,239,4.0,4.0,21,0.00,,,0.00,Wunderground v.1.15,2013-10-03 01:30:00,
2013-10-02 18:35:00,81.6,37.9,29.60,WSW,257,4.0,4.0,21,0.00,,,0.00,Wunderground v.1.15,2013-10-03 01:35:00,
2013-10-02 18:40:00,81.4,38.9,29.61,West,273,3.0,3.0,22,0.00,,,0.00,Wunderground v.1.15,2013-10-03 01:40:00,
2013-10-02 18:45:00,81.4,38.9,29.61,West,262,3.0,3.0,22,0.00,,,0.00,Wunderground v.1.15,2013-10-03 01:45:00,
2013-10-02 18:50:00,81.2,38.7,29.61,WNW,288,3.0,3.0,22,0.00,,,0.00,Wunderground v.1.15,2013-10-03 01:50:00,
2013-10-02 18:55:00,81.0,38.6,29.61,NW,323,2.0,3.0,22,0.00,,,0.00,Wunderground v.1.15,2013-10-03 01:55:00,
2013-10-02 19:00:00,80.7,38.3,29.61,West,281,1.0,1.0,22,0.00,,,0.00,Wunderground v.1.15,2013-10-03 02:00:00,
2013-10-02 19:05:00,80.6,38.2,29.61,WSW,243,2.0,2.0,22,0.00,,,0.00,Wunderground v.1.15,2013-10-03 02:05:00,
2013-10-02 19:10:00,80.1,38.9,29.61,NNW,337,1.0,1.0,23,0.00,,,0.00,Wunderground v.1.15,2013-10-03 02:10:00,
2013-10-02 19:15:00,79.9,38.8,29.61,NW,323,1.0,5.0,23,0.00,,,0.00,Wunderground v.1.15,2013-10-03 02:15:00,
2013-10-02 19:20:00,79.7,39.7,29.61,WSW,250,2.0,2.0,24,0.00,,,0.00,Wunderground v.1.15,2013-10-03 02:20:00,
2013-10-02 19:25:00,79.6,39.6,29.61,NW,312,3.0,3.0,24,0.00,,,0.00,Wunderground v.1.15,2013-10-03 02:25:00,
2013-10-02 19:35:00,79.5,39.5,29.62,North,352,5.0,6.0,24,0.00,,,0.00,Wunderground v.1.15,2013-10-03 02:35:00,
2013-10-02 19:40:00,79.4,39.4,29.62,NW,323,5.0,5.0,24,0.00,,,0.00,Wunderground v.1.15,2013-10-03 02:40:00,
2013-10-02 19:45:00,79.4,39.4,29.62,North,353,5.0,6.0,24,0.00,,,0.00,Wunderground v.1.15,2013-10-03 02:45:00,
2013-10-02 19:55:00,79.2,39.3,29.62,WNW,294,5.0,6.0,24,0.00,,,0.00,Wunderground v.1.15,2013-10-03 02:55:00,
2013-10-02 20:00:00,79.1,38.1,29.62,East,91,3.0,3.0,23,0.00,,,0.00,Wunderground v.1.15,2013-10-03 03:00:00,
2013-10-02 20:10:00,78.5,38.7,29.62,WSW,242,2.0,2.0,24,0.00,,,0.00,Wunderground v.1.15,2013-10-03 03:10:00,
2013-10-02 20:15:00,78.4,38.6,29.63,ENE,59,2.0,2.0,24,0.00,,,0.00,Wunderground v.1.15,2013-10-03 03:15:00,
2013-10-02 20:20:00,78.5,38.7,29.63,NE,51,2.0,2.0,24,0.00,,,0.00,Wunderground v.1.15,2013-10-03 03:20:00,
2013-10-02 20:25:00,78.8,38.9,29.63,West,273,3.0,5.0,24,0.00,,,0.00,Wunderground v.1.15,2013-10-03 03:25:00,
2013-10-02 20:30:00,79.1,38.1,29.63,SW,224,4.0,4.0,23,0.00,,,0.00,Wunderground v.1.15,2013-10-03 03:30:00,
2013-10-02 20:35:00,79.2,39.3,29.63,WSW,253,5.0,5.0,24,0.00,,,0.00,Wunderground v.1.15,2013-10-03 03:35:00,
2013-10-02 20:40:00,79.3,39.4,29.63,WSW,238,4.0,4.0,24,0.00,,,0.00,Wunderground v.1.15,2013-10-03 03:40:00,
2013-10-02 20:45:00,79.2,39.3,29.63,WSW,253,4.0,4.0,24,0.00,,,0.00,Wunderground v.1.15,2013-10-03 03:45:00,
2013-10-02 20:50:00,79.1,39.2,29.63,WNW,288,3.0,4.0,24,0.00,,,0.00,Wunderground v.1.15,2013-10-03 03:50:00,
2013-10-02 20:55:00,79.0,39.1,29.63,SW,236,2.0,4.0,24,0.00,,,0.00,Wunderground v.1.15,2013-10-03 03:55:00,
2013-10-02 21:05:00,78.6,38.8,29.63,West,263,1.0,2.0,24,0.00,,,0.00,Wunderground v.1.15,2013-10-03 04:05:00,
2013-10-02 21:10:00,78.3,38.5,29.63,NW,311,1.0,1.0,24,0.00,,,0.00,Wunderground v.1.15,2013-10-03 04:10:00,
2013-10-02 21:15:00,77.9,39.2,29.63,NW,314,1.0,1.0,25,0.00,,,0.00,Wunderground v.1.15,2013-10-03 04:15:00,
2013-10-02 21:20:00,77.4,38.8,29.64,East,79,0.0,0.0,25,0.00,,,0.00,Wunderground v.1.15,2013-10-03 04:20:00,
2013-10-02 21:25:00,76.6,38.1,29.64,East,80,0.0,0.0,25,0.00,,,0.00,Wunderground v.1.15,2013-10-03 04:25:00,
2013-10-02 21:30:00,75.8,38.5,29.64,East,79,0.0,0.0,26,0.00,,,0.00,Wunderground v.1.15,2013-10-03 04:30:00,
2013-10-02 21:35:00,75.5,38.2,29.64,East,79,0.0,0.0,26,0.00,,,0.00,Wunderground v.1.15,2013-10-03 04:35:00,
2013-10-02 21:40:00,75.3,39.0,29.64,WNW,288,0.0,0.0,27,0.00,,,0.00,Wunderground v.1.15,2013-10-03 04:40:00,
2013-10-02 21:50:00,75.5,38.2,29.64,West,259,0.0,0.0,26,0.00,,,0.00,Wunderground v.1.15,2013-10-03 04:50:00,
2013-10-02 21:55:00,75.7,38.4,29.64,NW,315,0.0,1.0,26,0.00,,,0.00,Wunderground v.1.15,2013-10-03 04:55:00,
2013-10-02 22:00:00,75.8,38.5,29.64,NNW,329,1.0,2.0,26,0.00,,,0.00,Wunderground v.1.15,2013-10-03 05:00:00,
2013-10-02 22:10:00,75.7,38.4,29.64,NW,323,2.0,2.0,26,0.00,,,0.00,Wunderground v.1.15,2013-10-03 05:10:00,
2013-10-02 22:15:00,75.8,38.5,29.64,NW,323,1.0,2.0,26,0.00,,,0.00,Wunderground v.1.15,2013-10-03 05:15:00,
2013-10-02 22:25:00,75.4,39.1,29.64,NW,304,1.0,2.0,27,0.00,,,0.00,Wunderground v.1.15,2013-10-03 05:25:00,
2013-10-02 22:35:00,74.6,38.4,29.64,West,266,2.0,2.0,27,0.00,,,0.00,Wunderground v.1.15,2013-10-03 05:35:00,
2013-10-02 22:45:00,74.8,38.6,29.65,WNW,300,2.0,3.0,27,0.00,,,0.00,Wunderground v.1.15,2013-10-03 05:45:00,
2013-10-02 22:50:00,75.1,38.8,29.65,West,273,3.0,4.0,27,0.00,,,0.00,Wunderground v.1.15,2013-10-03 05:50:00,
2013-10-02 23:00:00,75.9,39.5,29.65,WSW,253,5.0,5.0,27,0.00,,,0.00,Wunderground v.1.15,2013-10-03 06:00:00,
2013-10-02 23:10:00,75.6,42.8,29.65,West,274,8.0,10.0,31,0.00,,,0.00,Wunderground v.1.15,2013-10-03 06:10:00,
2013-10-02 23:15:00,75.2,43.3,29.65,West,270,9.0,10.0,32,0.00,,,0.00,Wunderground v.1.15,2013-10-03 06:15:00,
2013-10-02 23:20:00,74.9,45.4,29.65,SW,226,8.0,10.0,35,0.00,,,0.00,Wunderground v.1.15,2013-10-03 06:20:00,
2013-10-02 23:25:00,74.5,46.5,29.65,WSW,243,8.0,10.0,37,0.00,,,0.00,Wunderground v.1.15,2013-10-03 06:25:00,
2013-10-02 23:35:00,73.9,48.7,29.64,WSW,245,8.0,9.0,41,0.00,,,0.00,Wunderground v.1.15,2013-10-03 06:35:00,
2013-10-02 23:40:00,73.7,48.5,29.64,WSW,242,7.0,8.0,41,0.00,,,0.00,Wunderground v.1.15,2013-10-03 06:40:00,
2013-10-02 23:45:00,73.5,49.6,29.64,WSW,245,7.0,8.0,43,0.00,,,0.00,Wunderground v.1.15,2013-10-03 06:45:00,
2013-10-02 23:50:00,73.3,49.4,29.64,WSW,250,7.0,7.0,43,0.00,,,0.00,Wunderground v.1.15,2013-10-03 06:50:00,
2013-10-02 23:55:00,73.1,50.5,29.64,WSW,239,7.0,7.0,45,0.00,,,0.00,Wunderground v.1.15,2013-10-03 06:55:00,